DW9665 Sarajevo BA current weather conditions

sailwx.info

Wind from 158

Air temperature -2.8° C
Dewpoint -8.6° C

Last reported at 2016-Dec-10 00:47 UTC.
Time now 2016-Dec-10 01:17 UTC

Location: N 43°50' E 018°21'.
View on Google Maps.

See reports from other nearby stations

  
Tides and Currents Weather Stations Pressure Air Temp Water Temp Dewpoint Dewpoint Depression Visibility Wind Speed Wind Dir Waves Ship Positions
date/time (UTC)wind fromknots sea level pressurealtimeterstation pressurevisibilityair tempwater tempwave heightnotes
2016-Dec-10 00:47 158 -2.8
2016-Dec-10 00:32 158 -2.8
2016-Dec-10 00:17 158 0 -2.8
2016-Dec-10 00:02 158 -2.2
2016-Dec-09 23:47 158 -2.2
2016-Dec-09 23:32 158 -2.2
2016-Dec-09 23:17 158 2 gusting 4 -2.2
2016-Dec-09 23:02 180 -2.2
2016-Dec-09 22:47 180 -2.2
2016-Dec-09 22:32 180 -1.7
2016-Dec-09 22:17 180 -1.7
2016-Dec-09 22:02 180 -1.7
2016-Dec-09 21:47 180 -1.7
2016-Dec-09 21:32 180 -1.7
2016-Dec-09 21:17 180 -1.1
2016-Dec-09 21:02 180 -1.1
2016-Dec-09 20:47 180 -1.1
2016-Dec-09 20:32 180 -0.6
2016-Dec-09 20:17 180 -0.6
2016-Dec-09 20:02 180 -0.6
2016-Dec-09 19:47 180 -0.0
2016-Dec-09 19:32 180 -0.0
2016-Dec-09 19:17 180 -0.0
2016-Dec-09 19:02 180 -0.0
2016-Dec-09 18:47 270 0.6
2016-Dec-09 18:32 270 0.6
2016-Dec-09 18:17 270 1.1
2016-Dec-09 18:02 270 1.1
2016-Dec-09 17:47 270 1.7
2016-Dec-09 17:32 270 0 gusting 1 1.7
2016-Dec-09 17:17 270 1.7
2016-Dec-09 17:02 270 2.2
2016-Dec-09 16:47 270 2.8
2016-Dec-09 16:32 315 3.3
2016-Dec-09 16:17 315 3.3
2016-Dec-09 16:02 180 3.9
2016-Dec-09 15:47 180 4.4
2016-Dec-09 15:32 180 4.4
2016-Dec-09 15:17 180 5.0
2016-Dec-09 15:02 180 5.6
2016-Dec-09 14:47 158 1 gusting 1 6.1
2016-Dec-09 14:32 158 6.7
2016-Dec-09 14:17 158 7.2
2016-Dec-09 14:02 180 7.8
2016-Dec-09 13:47 180 0 gusting 1 7.8
2016-Dec-09 13:32 180 0 gusting 1 7.8
2016-Dec-09 13:17 158 7.8
2016-Dec-09 13:02 158 0 gusting 1 7.2
2016-Dec-09 12:47 270 7.2
2016-Dec-09 12:32 180 1 gusting 1 6.7
2016-Dec-09 12:17 180 0 gusting 3 6.1
2016-Dec-09 12:02 180 5.6
2016-Dec-09 11:47 180 0 gusting 2 5.0
2016-Dec-09 11:32 180 1 gusting 2 4.4
2016-Dec-09 11:17 270 1 gusting 2 3.9
2016-Dec-09 11:02 180 0 gusting 0 3.9
2016-Dec-09 10:47 158 2.8
2016-Dec-09 10:32 158 2.2
2016-Dec-09 10:17 180 1.1
2016-Dec-09 10:02 180 0.6
2016-Dec-09 09:47 180 -0.0
2016-Dec-09 09:32 180 1 gusting 1 -0.6
2016-Dec-09 09:17 158 -1.1
2016-Dec-09 09:02 158 1 gusting 2 -1.7
2016-Dec-09 08:47 270 1 gusting 2 -1.7
2016-Dec-09 08:32 292 1 gusting 2 -1.7
2016-Dec-09 08:17 270 1 gusting 2 -1.7
2016-Dec-09 08:02 292 1 -1.1
2016-Dec-09 07:47 135 -1.1
2016-Dec-09 07:32 270 -2.8
2016-Dec-09 07:17 135 -3.3
2016-Dec-09 06:47 112 0 gusting 2 -3.9
2016-Dec-09 06:32 180 0 gusting 1 -3.9
2016-Dec-09 06:17 270 0 gusting 2 -4.4
2016-Dec-09 06:02 270 -4.4
2016-Dec-09 05:47 270 1 gusting 2 -4.4
2016-Dec-09 05:32 135 0 gusting 2 -4.4
2016-Dec-09 05:17 180 -4.4
2016-Dec-09 05:02 180 -4.4
2016-Dec-09 04:47 180 -4.4
2016-Dec-09 04:32 180 -4.4
2016-Dec-09 04:17 180 -3.9
2016-Dec-09 04:02 180 -3.9
2016-Dec-09 03:47 180 -3.9
2016-Dec-09 03:32 158 -3.9
2016-Dec-09 03:17 158 -3.9
2016-Dec-09 03:02 158 0 gusting 1 -3.9
2016-Dec-09 02:47 158 -3.9
2016-Dec-09 02:32 180 -3.9
2016-Dec-09 02:17 180 -3.9
2016-Dec-09 02:02 270 -3.3
2016-Dec-09 01:47 270 -3.3
2016-Dec-09 01:32 180 -3.3
2016-Dec-09 01:17 180 -3.3
2016-Dec-09 01:02 180 -3.3
2016-Dec-09 00:47 180 -2.8
2016-Dec-09 00:32 180 -2.8
2016-Dec-09 00:17 180 0 gusting 1 -2.8
2016-Dec-09 00:02 180 -2.8
2016-Dec-08 23:47 180 0 -2.8
2016-Dec-08 23:32 180 -2.8
2016-Dec-08 23:17 270 -2.8
2016-Dec-08 23:02 270 0 gusting 2 -2.2
2016-Dec-08 22:47 158 0 gusting 0 -2.2
2016-Dec-08 22:32 158 -2.2
2016-Dec-08 22:17 158 -2.2
2016-Dec-08 22:02 158 -1.7
2016-Dec-08 21:47 135 -1.7
2016-Dec-08 21:32 135 -1.7
2016-Dec-08 21:17 135 0 gusting 1 -1.7
2016-Dec-08 21:02 180 0 -1.7
2016-Dec-08 20:47 158 -1.7
2016-Dec-08 20:32 270 -1.7
2016-Dec-08 20:17 270 -1.7
2016-Dec-08 20:02 180 -1.1
2016-Dec-08 19:47 180 -1.1
2016-Dec-08 19:32 270 -0.6
2016-Dec-08 19:17 270 -0.6
2016-Dec-08 19:02 -0.6
2016-Dec-08 18:47 270 -0.6
2016-Dec-08 18:32 270 -0.0
2016-Dec-08 18:17 292 -0.0
2016-Dec-08 18:02 270 -0.0
2016-Dec-08 17:47 -0.0
2016-Dec-08 17:32 270 0.6
2016-Dec-08 17:17 270 0.6
2016-Dec-08 17:02 292 0 gusting 1 1.1
2016-Dec-08 16:47 158 1.1
2016-Dec-08 16:32 158 1.7
2016-Dec-08 16:02 158 2.2
2016-Dec-08 15:47 158 2.8
2016-Dec-08 15:32 158 2.8
2016-Dec-08 15:17 158 3.3
2016-Dec-08 15:02 158 3.3
2016-Dec-08 14:47 180 4.4
2016-Dec-08 14:32 135 4.4
2016-Dec-08 14:17 135 5.6
2016-Dec-08 14:02 135 5.6
2016-Dec-08 13:47 158 5.6
2016-Dec-08 13:32 135 5.6
2016-Dec-08 13:17 270 5.0
2016-Dec-08 13:02 270 2 gusting 2 5.6
2016-Dec-08 12:47 270 5.0
2016-Dec-08 12:32 180 0 gusting 2 4.4
2016-Dec-08 12:17 112 0 gusting 3 3.9
2016-Dec-08 12:02 180 2 gusting 2 4.4
2016-Dec-08 11:47 158 0 gusting 1 3.9
2016-Dec-08 11:32 158 2.8
2016-Dec-08 11:17 158 2.2
2016-Dec-08 11:02 315 0 gusting 1 1.7
2016-Dec-08 10:47 090 1.1
2016-Dec-08 10:32 158 0.6
2016-Dec-08 10:17 270 -0.6
2016-Dec-08 10:02 180 1 gusting 3 -0.6
2016-Dec-08 09:47 270 1 gusting 2 -1.1
2016-Dec-08 09:32 270 -1.1
2016-Dec-08 09:17 180 -2.2
2016-Dec-08 09:02 270 -2.8
2016-Dec-08 08:47 270 1 gusting 1 -2.8
2016-Dec-08 08:32 270 1 gusting 2 -2.8
2016-Dec-08 08:17 158 0 gusting 3 -3.3
2016-Dec-08 08:02 292 0 gusting 3 -4.4
2016-Dec-08 07:47 180 0 gusting 3 -4.4
2016-Dec-08 07:32 270 2 gusting 2 -5.0
2016-Dec-08 07:17 180 1 gusting 2 -4.4
2016-Dec-08 07:02 158 -4.4
2016-Dec-08 06:47 158 -5.0
2016-Dec-08 06:32 158 -5.6
2016-Dec-08 06:17 158 -5.6
2016-Dec-08 06:02 158 -5.6
2016-Dec-08 05:47 158 -5.6
2016-Dec-08 05:32 158 0 gusting 0 -5.6
2016-Dec-08 05:17 158 -5.0
2016-Dec-08 05:02 158 0 gusting 3 -5.0
2016-Dec-08 04:47 180 1 gusting 2 -5.0
2016-Dec-08 04:32 270 -5.0
2016-Dec-08 04:17 270 -5.0
2016-Dec-08 04:02 270 0 gusting 1 -4.4
2016-Dec-08 03:47 270 0 -4.4
2016-Dec-08 03:32 270 -4.4
2016-Dec-08 03:17 270 -4.4
2016-Dec-08 03:02 180 -4.4
2016-Dec-08 02:47 180 0 gusting 1 -4.4
2016-Dec-08 02:32 180 1 gusting 1 -4.4
2016-Dec-08 02:17 180 0 gusting 1 -3.9
2016-Dec-08 02:02 180 -3.9
2016-Dec-08 01:47 180 -3.9
2016-Dec-08 01:32 180 0 gusting 0 -3.9
2016-Dec-08 01:17 180 -3.3
2016-Dec-08 01:02 180 -3.3